Voltar ao catálogo

STARLINK-35555

AtivoComunicaçõesVLEO
NORAD 66425·PAYLOAD·🇺🇸 United States

Lançado Nov 11, 2025 de Cape Canaveral Space Force Station

Loading…

Próximas Passagens (próximas 24 horas)

TLE

AtualizadoSource: CelesTrak SupGP

Época: Sep 14, 2026, 21:36 UTC

1 66425C 25259D   26257.90048611  .00008830  00000+0  32003-3 0  2573
2 66425  43.0029 285.8394 0001608 273.6546 244.8452 15.27552346    10

Acompanhe STARLINK-35555 em tempo real com AllMySat

Download on the App Store